Regional Weather Roundup
Issued by NWS

Home | Current Version | Previous Version | Text Only | Print | Product List | Glossary Off
Versions: 1 2 3 4 5 6 7 8 9 10 11 12 13 14 15 16 17 18 19 20 21 22 23 24 25 26 27 28 29 30 31 32 33 34 35 36 37 38 39 40 41 42 43 44 45 46 47 48 49 50

000
ASUS43 KLMK 312310
RWRKY
KENTUCKY REGIONAL WEATHER ROUNDUP
NATIONAL WEATHER SERVICE LOUISVILLE KY
700 PM EDT FRI OCT 31 2014

NOTE "FAIR" INDICATES FEW OR NO CLOUDS BELOW 12,000 FEET
WITH NO SIGNIFICANT WEATHER AND/OR OBSTRUCTIONS TO VISIBILITY.

KYZ001>023-026-027-061>063-070>075-010000-
WESTERN AND SOUTH CENTRAL KENTUCKY

CITY           SKY/WX    TMP DP  RH WIND       PRES   REMARKS
PADUCAH        PTCLDY    44  23  43 N18G25    30.23R
HENDERSON      CLOUDY    43  25  49 NW17      30.19R
OWENSBORO      LGT RAIN  42  32  68 NW22G40   30.16R
HOPKINSVILLE   CLOUDY    42  26  54 NW10G22   30.17R
BOWLING GREEN  PTCLDY    41  29  62 NW9       30.11R
GLASGOW        CLOUDY    39  30  69 NW15G23   30.08R WCI  31
$$

KYZ024-025-028>034-038-045-046-053-010000-
NORTH CENTRAL KENTUCKY

CITY           SKY/WX    TMP DP  RH WIND       PRES   REMARKS
LOUISVILLE/SDF CLOUDY    41  32  70 NW14G26   30.04R
LOUISVILLE/LOU CLOUDY    41  32  70 NW21G28   30.04R
FORT KNOX      CLOUDY    39  32  75 NW13G24   30.04R WCI  32
$$

KYZ035>037-039>044-047>052-055>060-089>105-010000-
NORTHEAST KENTUCKY

CITY           SKY/WX    TMP DP  RH WIND       PRES   REMARKS
LEXINGTON      CLOUDY    40  34  79 NW12      29.98R WCI  33
COVINGTON      CLOUDY    40  34  79 NW13      29.96R WCI  32
FRANKFORT      CLOUDY    39  33  79 NW10G16   29.99S WCI  32
$$

KYZ054-064>069-076>088-106>120-010000-
SOUTHEAST KENTUCKY

CITY           SKY/WX    TMP DP  RH WIND       PRES   REMARKS
JACKSON        FLURRIES  38  35  89 NW14G23   29.91R WCI  30
LONDON         LGT RAIN  38  34  85 NW15G23   29.97R WCI  29
SOMERSET       LGT RAIN  36  34  93 N10G21    30.03R WCI  28
MIDDLESBORO    LGT RAIN  41  37  83 NW20G29   29.94R
MONTICELLO     LGT SNOW  38  37  96 NW14G20   30.04R FOG     WCI  30
$$




USA.gov is the U.S. government's official web portal to all federal, state and local government web resources and services.